Find OneWeb SL0563

NORAD ID: 55800 Int'l Des: 2023-029 Owner: ONEWEBN Country: UK Constellation: oneweb operational
LEOCIRCULARPOLARONEWEB_TYPE

实时位置

正在加载3D地球...

关于 OneWeb SL0563

正在加载描述...

即将过境

Passes for default location (London). Set your location on the main map for personalized predictions.

高度历史

Loading altitude history...

两行轨道根数

1 55800U 23029E 26124.88382688 -.00000037 00000-0 -12294-3 0 9993
2 55800 87.9142 283.1237 0001944 90.6914 269.4442 13.20772711155423
Epoch: May 4, 2026 • Age: 12 hours

当前状态

高度 1193.5 km
速度 7.26 km/s
星下点 -29.31°S, 103.29°E
发射日期 Mar 9, 2023
运行时间 3.1 years
类型 internet

技术详情

分类 Payload
质量 148.00 kg
干质量 140.00 kg
总质量 148.00 kg
长度 1.30 m
直径 1.00 m
跨度 5.00 m
形状 Trapezoid+2 pan
制造商 ONEWUS
平台类型 ARROW
阶段状态 In Orbit
所有者/国家 ONEWEBN/UK

Most Searched